Overview Statistics Trail Chart Weather Telemetry Raw packets
 

This is the latest recevied weather packets stored in our database for station/object KC2GYU. If no packets are shown the sender has not sent any weather packets the latest 10 day(s).

<< 35 36 37 38 39 40 41 >>
Time Temp. Humidity Pressure Rain* Wind** Luminosity Snow
1777849031 14.44° C 43% 1013.9 hPa 0 mm - 35 W/m² -
1777848731 14.44° C 41% 1013.9 hPa 0 mm - 36 W/m² -
1777848429 14.44° C 42% 1013.8 hPa 0 mm - 37 W/m² -
1777848127 14.44° C 42% 1013.8 hPa 0 mm - 57 W/m² -
1777847824 14.44° C 42% 1013.9 hPa 0 mm - 57 W/m² -
1777847521 14.44° C 41% 1013.9 hPa 0 mm - 58 W/m² -
1777847232 15° C 42% 1013.9 hPa 0 mm - 50 W/m² -
1777846915 15° C 39% 1013.8 hPa 0 mm - 46 W/m² -
1777846614 15° C 39% 1013.8 hPa 0 mm - 46 W/m² -
1777846311 15.56° C 40% 1013.7 hPa 0 mm - 58 W/m² -
1777846007 16.11° C 40% 1013.6 hPa 0 mm - 198 W/m² -
1777845704 16.11° C 38% 1013.7 hPa 0 mm - 216 W/m² -
1777845401 15.56° C 38% 1013.7 hPa 0 mm - 233 W/m² -
1777845098 15.56° C 38% 1013.7 hPa 0 mm - 248 W/m² -
1777844797 15.56° C 37% 1013.9 hPa 0 mm - 233 W/m² -
1777844492 15.56° C 38% 1013.6 hPa 0 mm - 211 W/m² -
1777844192 15.56° C 37% 1013.7 hPa 0 mm - 286 W/m² -
1777843888 16.11° C 36% 1013.8 hPa 0 mm - 301 W/m² -
1777843585 16.11° C 38% 1013.6 hPa 0 mm - 324 W/m² -
1777843283 16.11° C 38% 1013.4 hPa 0 mm - 342 W/m² -
1777842980 16.11° C 36% 1013.5 hPa 0 mm - 337 W/m² -
1777842676 15.56° C 37% 1013.3 hPa 0 mm - 335 W/m² -
1777842372 16.11° C 37% 1013.6 hPa 0 mm - 388 W/m² -
1777842069 16.11° C 37% 1013.4 hPa 0 mm - 443 W/m² -
1777841759 16.11° C 36% 1013.4 hPa 0 mm - 335 W/m² -

* Rain latest hour (hover to see other rain measurements)
** Current wind speed in m/s (hover to see current wind gust speed)